Hourly Weather Knighton

Today, 26 January, Tuesday

Time Temperature Precipitation Wind Pressure Humidity
00:00 -3°C° 0 mm 2 mps 731 mmHg 91%
01:00 -3°C° 0 mm 2 mps 731 mmHg 91%
02:00 -3°C° 0 mm 2 mps 731 mmHg 91%
03:00 -2°C° 0 mm 2 mps 731 mmHg 91%
04:00 -2°C° 0 mm 2 mps 731 mmHg 92%
05:00 -2°C° 0 mm 2 mps 730 mmHg 92%
06:00 -1°C° 0 mm 2 mps 730 mmHg 93%
07:00 -1°C° 0.2 mm 2 mps 730 mmHg 95%
08:00 -1°C° 0.2 mm 2 mps 730 mmHg 96%
09:00 -1°C° 0.2 mm 2 mps 730 mmHg 98%
10:00 0°C° 0.4 mm 3 mps 729 mmHg 98%
11:00 -1°C° 0.4 mm 4 mps 729 mmHg 99%
12:00 -1°C° 0.4 mm 4 mps 728 mmHg 99%
13:00 0°C° 0.4 mm 4 mps 728 mmHg 99%
14:00 +1°C° 0.4 mm 3 mps 727 mmHg 99%
15:00 +1°C° 0.4 mm 3 mps 726 mmHg 99%
16:00 +1°C° 0.1 mm 3 mps 726 mmHg 99%
17:00 +2°C° 0.1 mm 3 mps 726 mmHg 99%
18:00 +3°C° 0.1 mm 2 mps 726 mmHg 99%
19:00 +3°C° 0 mm 3 mps 726 mmHg 98%
20:00 +3°C° 0 mm 3 mps 727 mmHg 98%
21:00 +4°C° 0 mm 3 mps 727 mmHg 98%
22:00 +4°C° 0 mm 3 mps 727 mmHg 97%
23:00 +3°C° 0 mm 3 mps 727 mmHg 97%

Tomorrow, 27 January, Wednesday

Time Temperature Precipitation Wind Pressure Humidity
00:00 +3°C° 0 mm 3 mps 728 mmHg 97%
01:00 +3°C° 0 mm 4 mps 728 mmHg 97%
02:00 +3°C° 0 mm 4 mps 728 mmHg 97%
03:00 +3°C° 0 mm 4 mps 728 mmHg 97%
04:00 +3°C° 0 mm 4 mps 728 mmHg 96%
05:00 +3°C° 0 mm 3 mps 728 mmHg 96%
06:00 +3°C° 0 mm 3 mps 728 mmHg 96%
07:00 +3°C° 0 mm 3 mps 728 mmHg 96%
08:00 +4°C° 0 mm 2 mps 729 mmHg 97%
09:00 +4°C° 0 mm 2 mps 729 mmHg 97%
10:00 +5°C° 0 mm 2 mps 729 mmHg 97%
11:00 +6°C° 0 mm 2 mps 729 mmHg 98%
12:00 +6°C° 0 mm 2 mps 729 mmHg 98%
13:00 +7°C° 0 mm 1 mps 729 mmHg 98%
14:00 +7°C° 0 mm 1 mps 729 mmHg 97%
15:00 +7°C° 0 mm 1 mps 729 mmHg 97%
16:00 +7°C° 0 mm 1 mps 728 mmHg 97%
17:00 +6°C° 0 mm 1 mps 728 mmHg 97%
18:00 +6°C° 0 mm 1 mps 728 mmHg 98%
19:00 +6°C° 0.5 mm 1 mps 728 mmHg 98%
20:00 +6°C° 0.5 mm 1 mps 727 mmHg 98%
21:00 +6°C° 0.5 mm 1 mps 727 mmHg 99%
22:00 +5°C° 2.6 mm 2 mps 726 mmHg 99%
23:00 +5°C° 2.6 mm 2 mps 725 mmHg 99%

Day after tomorrow, 28 January, Thursday

Time Temperature Precipitation Wind Pressure Humidity
00:00 +5°C° 2.6 mm 2 mps 724 mmHg 99%
01:00 +5°C° 1.8 mm 2 mps 723 mmHg 99%
02:00 +5°C° 1.8 mm 2 mps 722 mmHg 99%
03:00 +5°C° 1.8 mm 3 mps 722 mmHg 99%
04:00 +6°C° 0.2 mm 4 mps 721 mmHg 98%
05:00 +7°C° 0.2 mm 5 mps 721 mmHg 97%
06:00 +7°C° 0.2 mm 6 mps 720 mmHg 96%
07:00 +7°C° 0.2 mm 6 mps 720 mmHg 96%
08:00 +7°C° 0.2 mm 6 mps 721 mmHg 95%
09:00 +7°C° 0.2 mm 6 mps 721 mmHg 94%
10:00 +7°C° 0.1 mm 6 mps 721 mmHg 93%
11:00 +7°C° 0.1 mm 6 mps 721 mmHg 91%
12:00 +7°C° 0.1 mm 6 mps 722 mmHg 90%
13:00 +7°C° 0 mm 6 mps 721 mmHg 89%
14:00 +8°C° 0 mm 5 mps 721 mmHg 89%
15:00 +8°C° 0 mm 4 mps 721 mmHg 89%
16:00 +7°C° 0.3 mm 4 mps 720 mmHg 91%
17:00 +7°C° 0.3 mm 4 mps 720 mmHg 94%
18:00 +7°C° 0.3 mm 3 mps 720 mmHg 96%
19:00 +6°C° 0.2 mm 5 mps 720 mmHg 93%
20:00 +5°C° 0.2 mm 7 mps 720 mmHg 90%
21:00 +5°C° 0.2 mm 8 mps 720 mmHg 87%
22:00 +5°C° 0 mm 8 mps 721 mmHg 88%
23:00 +5°C° 0 mm 7 mps 721 mmHg 89%

29 January, Friday

Time Temperature Precipitation Wind Pressure Humidity
00:00 +4°C° 0 mm 7 mps 722 mmHg 90%
01:00 +4°C° 0 mm 7 mps 722 mmHg 90%
02:00 +4°C° 0 mm 6 mps 722 mmHg 90%
03:00 +4°C° 0 mm 6 mps 722 mmHg 91%
04:00 +4°C° 0 mm 6 mps 722 mmHg 91%
05:00 +3°C° 0 mm 5 mps 722 mmHg 91%
06:00 +3°C° 0 mm 5 mps 723 mmHg 91%
07:00 +3°C° 0 mm 5 mps 723 mmHg 91%
08:00 +3°C° 0 mm 5 mps 723 mmHg 91%
09:00 +3°C° 0 mm 5 mps 723 mmHg 92%
10:00 +5°C° 0 mm 5 mps 724 mmHg 88%
11:00 +4°C° 0 mm 6 mps 724 mmHg 85%
12:00 +5°C° 0 mm 7 mps 724 mmHg 82%
13:00 +5°C° 0 mm 6 mps 725 mmHg 81%
14:00 +5°C° 0 mm 6 mps 725 mmHg 81%
15:00 +5°C° 0 mm 6 mps 725 mmHg 80%
16:00 +3°C° 0 mm 5 mps 725 mmHg 84%
17:00 +3°C° 0 mm 4 mps 725 mmHg 89%
18:00 +2°C° 0 mm 3 mps 725 mmHg 93%
19:00 +2°C° 0 mm 3 mps 725 mmHg 94%
20:00 +3°C° 0 mm 2 mps 725 mmHg 94%
21:00 +2°C° 0 mm 2 mps 725 mmHg 95%
22:00 +3°C° 0 mm 1 mps 725 mmHg 94%
23:00 +3°C° 0 mm 1 mps 725 mmHg 94%

30 January, Saturday

Time Temperature Precipitation Wind Pressure Humidity
00:00 +2°C° 0 mm 0 mps 725 mmHg 93%
01:00 +2°C° 0 mm 0 mps 725 mmHg 93%
02:00 +1°C° 0 mm 0 mps 724 mmHg 92%
03:00 +1°C° 0 mm 0 mps 724 mmHg 92%
04:00 +1°C° 0 mm 0 mps 724 mmHg 92%
05:00 +1°C° 0 mm 0 mps 724 mmHg 92%
06:00 +2°C° 0 mm 1 mps 724 mmHg 92%
07:00 +3°C° 0 mm 1 mps 724 mmHg 92%
08:00 +3°C° 0 mm 1 mps 724 mmHg 92%
09:00 +3°C° 0 mm 1 mps 724 mmHg 92%
10:00 +4°C° 0 mm 1 mps 725 mmHg 90%
11:00 +5°C° 0 mm 1 mps 725 mmHg 88%
12:00 +5°C° 0 mm 1 mps 725 mmHg 86%
13:00 +5°C° 0 mm 1 mps 725 mmHg 87%
14:00 +5°C° 0 mm 1 mps 725 mmHg 87%
15:00 +4°C° 0 mm 2 mps 724 mmHg 88%
16:00 +5°C° 0.2 mm 1 mps 724 mmHg 91%
17:00 +5°C° 0.2 mm 1 mps 724 mmHg 94%
18:00 +4°C° 0.2 mm 1 mps 724 mmHg 97%
19:00 +3°C° 0.2 mm 2 mps 724 mmHg 97%
20:00 +3°C° 0.2 mm 2 mps 723 mmHg 97%
21:00 +2°C° 0.2 mm 3 mps 723 mmHg 97%
22:00 +2°C° 0.1 mm 3 mps 722 mmHg 97%
23:00 +1°C° 0.1 mm 4 mps 721 mmHg 97%

31 January, Sunday

Time Temperature Precipitation Wind Pressure Humidity
00:00 +1°C° 0.1 mm 4 mps 720 mmHg 97%
01:00 +1°C° 0.7 mm 5 mps 719 mmHg 97%
02:00 +2°C° 0.7 mm 6 mps 717 mmHg 97%
03:00 +2°C° 0.7 mm 6 mps 716 mmHg 96%
04:00 +2°C° 0.9 mm 6 mps 714 mmHg 97%
05:00 +3°C° 0.9 mm 5 mps 713 mmHg 97%
06:00 +3°C° 0.9 mm 5 mps 711 mmHg 97%
07:00 +4°C° 0.7 mm 4 mps 710 mmHg 97%
08:00 +5°C° 0.7 mm 4 mps 709 mmHg 98%
09:00 +5°C° 0.7 mm 3 mps 708 mmHg 98%
10:00 +7°C° 0.1 mm 3 mps 707 mmHg 97%
11:00 +7°C° 0.1 mm 3 mps 707 mmHg 96%
12:00 +8°C° 0.1 mm 3 mps 706 mmHg 94%
13:00 +8°C° 0.1 mm 3 mps 706 mmHg 93%
14:00 +8°C° 0.1 mm 3 mps 706 mmHg 92%
15:00 +8°C° 0.1 mm 3 mps 706 mmHg 90%
16:00 +8°C° 0.1 mm 3 mps 707 mmHg 92%
17:00 +8°C° 0.1 mm 3 mps 708 mmHg 93%
18:00 +6°C° 0.1 mm 4 mps 709 mmHg 94%
19:00 +7°C° 0.2 mm 5 mps 709 mmHg 93%
20:00 +7°C° 0.2 mm 6 mps 710 mmHg 92%
21:00 +6°C° 0.2 mm 7 mps 711 mmHg 90%
22:00 +5°C° 0 mm 7 mps 712 mmHg 89%
23:00 +4°C° 0 mm 7 mps 713 mmHg 88%
Show more